Current weather by "City, St" or "zip code"  
 
Advertise Here

Current Conditions: Shelbyville Municipal Airport, IN

Fair


35.0 F

Last Updated on Jan 20 2021, 1:53 pm EST
Humidity: 44%
Wind Speed: S 6.9 mph
Barometer 30.17 in
Dewpoint: 15.1 F
Visibility: 10.00 mi
Precip: --
Heat Index: NA
Wind Chill: 29 F
Current conditions at:

Shelbyville Municipal Airport, IN (KGEZ)

Lat: 39.58546 Lon: 85.79982

Local Radar Image active severe weather and emergency alerts image image weather storm and storm spotter reports image weather observation monitoring service image
Local
Radar
Active
Alerts
Storm Reports Obs
Monitoring

Sign-up For Email & Text Message Weather Alert Notification Services


Advertise Here

Observation History for Shelbyville Municipal Airport, IN


Time Wind
(mph)
Vis
(mi)
Weather Precip (in) Temperature (F) Relative
Humidity
Wind
Chill
(F)
Heat
Index
(F)
Pressure
Air Dwpt altimeter
(in)
sea level
(mb)
Rmks
1:53 pm EST S 6.9 10.00 Fair -- 35.0 15.1 44% 29 NA 30.17 1022.1
12:53 pm EST SW 9.2 10.00 Fair -- 33.0 17.1 52% 25 NA 30.24 1024.7
11:53 am EST W 8.1 G 17.3 10.00 Fair -- 32.0 17.1 54% 25 NA 30.29 1026.4
10:53 am EST W 9.2 10.00 Partly Cloudy -- 29.0 16.0 58% 20 NA 30.30 1026.6
9:53 am EST W 10.4 10.00 Overcast -- 28.0 16.0 60% 19 NA 30.30 1026.7
8:53 am EST W 9.2 10.00 Overcast -- 28.0 15.1 58% 19 NA 30.28 1026.0
7:53 am EST W 11.5 10.00 Overcast -- 29.0 17.1 61% 19 NA 30.26 1025.5
6:53 am EST W 13.8 10.00 Overcast -- 29.0 17.1 61% 18 NA 30.24 1024.8
5:53 am EST NW 10.4 10.00 Overcast -- 30.0 19.0 64% 21 NA 30.24 1024.7
4:53 am EST NW 17.3 10.00 Overcast -- 30.0 19.0 64% 18 NA 30.21 1023.7
3:53 am EST W 17.3 G 29.9 10.00 Overcast -- 31.0 19.0 61% 20 NA 30.20 1023.2
2:53 am EST NW 18.4 G 29.9 10.00 Partly Cloudy -- 31.0 19.0 61% 19 NA 30.19 1022.8
1:53 am EST W 23.0 G 35.7 10.00 Mostly Cloudy and Breezy -- 36.0 23.0 59% 24 NA 30.14 1021.2
12:53 am EST W 18.4 G 29.9 10.00 Overcast -- 37.0 26.1 65% 27 NA 30.12 1020.6
11:53 pm EST W 16.1 10.00 Overcast -- 37.0 27.0 67% 28 NA 30.13 1020.8
10:53 pm EST W 19.6 G 33.4 10.00 Overcast -- 38.0 27.0 65% 28 NA 30.14 1021.1
9:53 pm EST W 18.4 G 25.3 10.00 Overcast -- 39.0 26.1 60% 30 NA 30.13 1021.1
8:53 pm EST SW 10.4 10.00 Overcast -- 38.0 24.1 57% 31 NA 30.13 1021.3
7:53 pm EST SW 10.4 10.00 Overcast -- 38.0 24.1 57% 31 NA 30.16 1022.0
6:53 pm EST SW 8.1 10.00 Overcast -- 39.0 21.9 50% 33 NA 30.17 1022.3
5:53 pm EST SW 10.4 10.00 Overcast -- 40.0 21.0 47% 33 NA 30.17 1022.5
4:53 pm EST W 9.2 10.00 Mostly Cloudy -- 41.0 21.0 45% 35 NA 30.18 1022.5
3:53 pm EST SW 11.5 10.00 Fair -- 42.0 23.0 47% 36 NA 30.18 1022.6
2:53 pm EST SW 13.8 10.00 Fair -- 41.0 23.0 49% 33 NA 30.19 1022.7

Regional Weather Observation


Greenwood Municipal Airport, IN (KHFY)

Fair
32.0 F

Indianapolis, Eagle Creek Airpark, IN (KEYE)

Fair
33.0 F

Indianapolis International Airport, IN (KIND)

A Few Clouds
33.0 F

Shelbyville Municipal Airport, IN (KGEZ)

Fair
35.0 F

Edinburgh, IN (K1II)

Overcast
75.0 F

Columbus / Bakalar, IN (KBAK)

Fair
34.0 F